TV
NORAD ID: 23528
Int'l Code: 1995-013A
Perigee: 36,063.7 km
Apogee: 36,258.7 km
Inclination: 3.1 °
Period: 1,454.9 minutes
Semi major axis: 42532 km
Launch date: March 22, 1995
Source: International Telecommunications Satellite Organiz (ITSO)
Comments: 42 C-band, 24 Ku-band; broadcasting, business services, direct-to-home TV broadcasting, telecommunications, VSATnetworks; Atlantic Ocean region.
Two Line Element Set (TLE):
1 23528U 95013A 13144.63022972 -.00000225 00000-0 00000+0 0 5997
2 23528 003.0730 068.4441 0022927 351.3945 008.1459 00.98975134 66380
Source: AFSPC
NASA's NSSDC Master Catalog entry for INTELSAT 705